Showing default

TJS-13, 62188

Orbit data source: Space-Track

TJS-13, 62188 is a payload satellite owned by CASC (CN) in HEO that was launched on Tue, 03 Dec 2024 UTC via a CHANG ZHENG 3B launch vehicle from the Xichang Space Center, China (XSC). Payload-class satellites include a variety of spacecraft equipped with specific instruments for various scientific and technological missions. These include communications satellites like Starlink; space stations such as the ISS; scientific satellites like the Hubble; Earth observation satellites from companies like Planet Labs, Umbra, and HawkEye 360; GPS; miniature CubeSats for education and research; and military/defense satellites.

Loading next visibility...
Identifier
62188, 2024-227A
Orbit
HEO
Country
Flag of CNCN / PRC
Related business
Manufacturer
SISE
Mission
Operational Defense Technology
Bus & Motor
FY-4?, Unknown motor
Mass
~4,000 kg wet, ~2,500 kg dry
Launch date (UTC)
2024-12-03 (1 year ago)
Launch vehicle
CHANG ZHENG 3B
Launch site
Xichang Space Center, China (XSC)
Object type
Payload
Rocket body
Debris
Shape & HBR
Box + 2 Pan, 15.0 m
Radar Cross Section
34.063 m², Large (>1 m²)

Expand to show TLE details & history
Last TLE update: 3 weeks ago

TLE from 3 weeks ago
0 TJS-13
1 62188U 24227A   26126.52878615  .00181812  00000-0  10000-3 0  9996
2 62188  63.6994  43.7759 6941075 269.5448  17.5972  2.00701816 10411
Epoch: 2026-05-06T12:41Z
TLE epoch observation values (Epoch: 2026-05-06T12:41:27.123Z)
Latitude
-0.03543°
Longitude
-10.97308°
Altitude
7,502.18 km
Speed
6.513 km/s
True Right ascension
02h 55m 06s
True Declination
0° 02' 07"
Sunlit
Object was in daylight at epoch
Visualization orbit readout
Latitude
Unknown
Longitude
Unknown
Altitude
Unknown
Speed
Unknown
Apparent Right ascension
Unknown
Apparent Declination
Unknown
Sunlit
N/A
Visualization observer readout
Local Sidereal Time
19:08:00
Azimuth
Unknown
Elevation
Unknown
Doppler factor
Unknown
Orbital elements
Apogee altitude
38,595.767 km
Perigee altitude
1,742.469 km
Semi-major axis
26,547.255 km
Eccentricity
0.69411
Inclination
63.6994°
RAAN
43.7759°
Arg. of periapsis
269.5448°
True anomaly
90.48557°
Mean anomaly
17.5972°
Eccentric anomaly
46.39444°
Mean motion
0.50178 °/min
Orbital period
717.45 mins
BSTAR
0.0001
Loading maneuver chart data...
Computing Atmospheric mass density...
Loading historical data...
Loading historical data...
Loading historical data...
Loading historical data...
Loading historical data...
Loading historical data...
Loading historical data...
Other satellites on launch #227 in the year 2024 (2024-12-03 UTC)

Documentation

Showing up to 5 results
|